Location: T�bingen+AIT
(48.5342°N, 9.0700°E)
Time: 20:28:04
(UTC+02:00)

Shenzhou-11 Module - Pass Details

Date: 14 September 2017
Orbit: 364 x 370 km, 42.8° (Epoch: 19 September)

Event Time Altitude Azimuth Distance (km) Brightness Sun altitude
Rises 20:48:03 0° 262° (W) 2,203 7.1 -12.1°
Reaches altitude 10° 20:50:24 10° 245° (WSW) 1,356 5.5 -12.5°
Maximum altitude 20:52:44 20° 195° (SSW) 914 3.9 -12.8°
Enters shadow 20:54:08 15° 159° (SSE) 1,090 4.0 -13.0°
